owner,sensor,date,latitude,longitude,vertical_datum,sea_water_practical_salinity,qcFlag 
LUMCON,ioos:station:LUMCON:102:1,2017-04-01T00:00:00Z,29.1870,-90.6093,2.4,21.94,1111122 
LUMCON,ioos:station:LUMCON:102:1,2017-04-01T00:15:00Z,29.1870,-90.6093,2.39,21.44,1111122 
LUMCON,ioos:station:LUMCON:102:1,2017-04-01T00:30:00Z,29.1870,-90.6093,2.37,21.34,1111122 
LUMCON,ioos:station:LUMCON:102:1,2017-04-01T00:45:00Z,29.1870,-90.6093,2.37,21.23,1111122 
LUMCON,ioos:station:LUMCON:102:1,2017-04-01T01:00:00Z,29.1870,-90.6093,2.35,21.05,1111122 
LUMCON,ioos:station:LUMCON:102:1,2017-04-01T01:15:00Z,29.1870,-90.6093,2.34,21.12,1111122 
LUMCON,ioos:station:LUMCON:102:1,2017-04-01T01:30:00Z,29.1870,-90.6093,2.33,21.26,1111122 
LUMCON,ioos:station:LUMCON:102:1,2017-04-01T01:45:00Z,29.1870,-90.6093,2.32,21.2,1111122 
LUMCON,ioos:station:LUMCON:102:1,2017-04-01T02:00:00Z,29.1870,-90.6093,2.31,20.81,1111122 
LUMCON,ioos:station:LUMCON:102:1,2017-04-01T02:15:00Z,29.1870,-90.6093,2.3,20.93,1111122 
LUMCON,ioos:station:LUMCON:102:1,2017-04-01T02:30:00Z,29.1870,-90.6093,2.29,20.77,1111122 
LUMCON,ioos:station:LUMCON:102:1,2017-04-01T02:45:00Z,29.1870,-90.6093,2.29,20.62,1111122 
LUMCON,ioos:station:LUMCON:102:1,2017-04-01T03:00:00Z,29.1870,-90.6093,2.28,20.36,1111122 
LUMCON,ioos:station:LUMCON:102:1,2017-04-01T03:15:00Z,29.1870,-90.6093,2.28,20.25,1111122 
LUMCON,ioos:station:LUMCON:102:1,2017-04-01T03:30:00Z,29.1870,-90.6093,2.26,20.27,1111122 
LUMCON,ioos:station:LUMCON:102:1,2017-04-01T03:45:00Z,29.1870,-90.6093,2.27,20.2,1111122 
LUMCON,ioos:station:LUMCON:102:1,2017-04-01T04:00:00Z,29.1870,-90.6093,2.25,20.0,1111122 
LUMCON,ioos:station:LUMCON:102:1,2017-04-01T04:15:00Z,29.1870,-90.6093,2.25,19.84,1111122 
LUMCON,ioos:station:LUMCON:102:1,2017-04-01T04:30:00Z,29.1870,-90.6093,2.24,19.82,1111122 
LUMCON,ioos:station:LUMCON:102:1,2017-04-01T04:45:00Z,29.1870,-90.6093,2.25,19.7,1111122 
LUMCON,ioos:station:LUMCON:102:1,2017-04-01T05:00:00Z,29.1870,-90.6093,2.24,19.68,1111122 
LUMCON,ioos:station:LUMCON:102:1,2017-04-01T05:15:00Z,29.1870,-90.6093,2.25,19.59,1111122 
LUMCON,ioos:station:LUMCON:102:1,2017-04-01T05:30:00Z,29.1870,-90.6093,2.25,19.87,1111122 
LUMCON,ioos:station:LUMCON:102:1,2017-04-01T05:45:00Z,29.1870,-90.6093,2.25,19.92,1111122 
LUMCON,ioos:station:LUMCON:102:1,2017-04-01T06:00:00Z,29.1870,-90.6093,2.25,19.88,1111122 
LUMCON,ioos:station:LUMCON:102:1,2017-04-01T06:15:00Z,29.1870,-90.6093,2.26,19.86,1111122 
LUMCON,ioos:station:LUMCON:102:1,2017-04-01T06:30:00Z,29.1870,-90.6093,2.25,19.96,1111122 
LUMCON,ioos:station:LUMCON:102:1,2017-04-01T06:45:00Z,29.1870,-90.6093,2.25,19.81,1111122 
LUMCON,ioos:station:LUMCON:102:1,2017-04-01T07:00:00Z,29.1870,-90.6093,2.26,19.74,1111122 
LUMCON,ioos:station:LUMCON:102:1,2017-04-01T07:15:00Z,29.1870,-90.6093,2.27,19.54,1111122 
LUMCON,ioos:station:LUMCON:102:1,2017-04-01T07:30:00Z,29.1870,-90.6093,2.29,19.68,1111122 
LUMCON,ioos:station:LUMCON:102:1,2017-04-01T07:45:00Z,29.1870,-90.6093,2.29,19.72,1111122 
LUMCON,ioos:station:LUMCON:102:1,2017-04-01T08:00:00Z,29.1870,-90.6093,2.31,19.7,1111122 
LUMCON,ioos:station:LUMCON:102:1,2017-04-01T08:15:00Z,29.1870,-90.6093,2.32,19.68,1111122 
LUMCON,ioos:station:LUMCON:102:1,2017-04-01T08:30:00Z,29.1870,-90.6093,2.33,19.88,1111122 
LUMCON,ioos:station:LUMCON:102:1,2017-04-01T08:45:00Z,29.1870,-90.6093,2.34,19.86,1111122 
LUMCON,ioos:station:LUMCON:102:1,2017-04-01T09:00:00Z,29.1870,-90.6093,2.36,20.02,1111122 
LUMCON,ioos:station:LUMCON:102:1,2017-04-01T09:15:00Z,29.1870,-90.6093,2.38,20.09,1111122 
LUMCON,ioos:station:LUMCON:102:1,2017-04-01T09:30:00Z,29.1870,-90.6093,2.38,20.03,1111122 
LUMCON,ioos:station:LUMCON:102:1,2017-04-01T09:45:00Z,29.1870,-90.6093,2.4,20.37,1111122 
LUMCON,ioos:station:LUMCON:102:1,2017-04-01T10:00:00Z,29.1870,-90.6093,2.41,20.27,1111122 
LUMCON,ioos:station:LUMCON:102:1,2017-04-01T10:15:00Z,29.1870,-90.6093,2.42,20.17,1111122 
LUMCON,ioos:station:LUMCON:102:1,2017-04-01T10:30:00Z,29.1870,-90.6093,2.44,20.17,1111122 
LUMCON,ioos:station:LUMCON:102:1,2017-04-01T10:45:00Z,29.1870,-90.6093,2.45,20.38,1111122 
LUMCON,ioos:station:LUMCON:102:1,2017-04-01T11:00:00Z,29.1870,-90.6093,2.47,20.5,1111122 
LUMCON,ioos:station:LUMCON:102:1,2017-04-01T11:15:00Z,29.1870,-90.6093,2.48,20.49,1111122 
LUMCON,ioos:station:LUMCON:102:1,2017-04-01T11:30:00Z,29.1870,-90.6093,2.49,20.65,1111122 
LUMCON,ioos:station:LUMCON:102:1,2017-04-01T11:45:00Z,29.1870,-90.6093,2.5,20.68,1111122 
LUMCON,ioos:station:LUMCON:102:1,2017-04-01T12:00:00Z,29.1870,-90.6093,2.51,20.72,1111122 
LUMCON,ioos:station:LUMCON:102:1,2017-04-01T12:15:00Z,29.1870,-90.6093,2.51,20.76,1111122 
LUMCON,ioos:station:LUMCON:102:1,2017-04-01T12:30:00Z,29.1870,-90.6093,2.53,20.85,1111122 
LUMCON,ioos:station:LUMCON:102:1,2017-04-01T12:45:00Z,29.1870,-90.6093,2.53,20.81,1111122 
LUMCON,ioos:station:LUMCON:102:1,2017-04-01T13:00:00Z,29.1870,-90.6093,2.55,21.02,1111122 
LUMCON,ioos:station:LUMCON:102:1,2017-04-01T13:15:00Z,29.1870,-90.6093,2.55,21.06,1111122 
LUMCON,ioos:station:LUMCON:102:1,2017-04-01T13:30:00Z,29.1870,-90.6093,2.57,20.95,1111122 
LUMCON,ioos:station:LUMCON:102:1,2017-04-01T13:45:00Z,29.1870,-90.6093,2.56,21.01,1111122 
LUMCON,ioos:station:LUMCON:102:1,2017-04-01T14:00:00Z,29.1870,-90.6093,2.57,21.08,1111122 
LUMCON,ioos:station:LUMCON:102:1,2017-04-01T14:15:00Z,29.1870,-90.6093,2.58,20.97,1111122 
LUMCON,ioos:station:LUMCON:102:1,2017-04-01T14:30:00Z,29.1870,-90.6093,2.58,21.15,1111122 
LUMCON,ioos:station:LUMCON:102:1,2017-04-01T14:45:00Z,29.1870,-90.6093,2.58,21.22,1111122 
LUMCON,ioos:station:LUMCON:102:1,2017-04-01T15:00:00Z,29.1870,-90.6093,2.58,21.07,1111122 
LUMCON,ioos:station:LUMCON:102:1,2017-04-01T15:15:00Z,29.1870,-90.6093,2.61,21.13,1111122 
LUMCON,ioos:station:LUMCON:102:1,2017-04-01T15:30:00Z,29.1870,-90.6093,2.62,21.28,1111122 
LUMCON,ioos:station:LUMCON:102:1,2017-04-01T15:45:00Z,29.1870,-90.6093,2.63,21.25,1111122 
LUMCON,ioos:station:LUMCON:102:1,2017-04-01T16:00:00Z,29.1870,-90.6093,2.63,21.19,1111122 
LUMCON,ioos:station:LUMCON:102:1,2017-04-01T16:15:00Z,29.1870,-90.6093,2.64,21.2,1111122 
LUMCON,ioos:station:LUMCON:102:1,2017-04-01T16:30:00Z,29.1870,-90.6093,2.66,21.41,1111122 
LUMCON,ioos:station:LUMCON:102:1,2017-04-01T16:45:00Z,29.1870,-90.6093,2.67,21.64,1111122 
LUMCON,ioos:station:LUMCON:102:1,2017-04-01T17:00:00Z,29.1870,-90.6093,2.67,21.98,1111122 
LUMCON,ioos:station:LUMCON:102:1,2017-04-01T17:15:00Z,29.1870,-90.6093,2.67,21.89,1111122 
LUMCON,ioos:station:LUMCON:102:1,2017-04-01T17:30:00Z,29.1870,-90.6093,2.67,21.74,1111122 
LUMCON,ioos:station:LUMCON:102:1,2017-04-01T17:45:00Z,29.1870,-90.6093,2.65,21.77,1111122 
LUMCON,ioos:station:LUMCON:102:1,2017-04-01T18:00:00Z,29.1870,-90.6093,2.66,22.05,1111122 
LUMCON,ioos:station:LUMCON:102:1,2017-04-01T18:15:00Z,29.1870,-90.6093,2.66,22.33,1111122 
LUMCON,ioos:station:LUMCON:102:1,2017-04-01T18:30:00Z,29.1870,-90.6093,2.64,22.35,1111122 
LUMCON,ioos:station:LUMCON:102:1,2017-04-01T18:45:00Z,29.1870,-90.6093,2.64,22.3,1111122 
LUMCON,ioos:station:LUMCON:102:1,2017-04-01T19:00:00Z,29.1870,-90.6093,2.64,22.19,1111122 
LUMCON,ioos:station:LUMCON:102:1,2017-04-01T19:15:00Z,29.1870,-90.6093,2.63,22.35,1111122 
LUMCON,ioos:station:LUMCON:102:1,2017-04-01T19:30:00Z,29.1870,-90.6093,2.63,22.23,1111122 
LUMCON,ioos:station:LUMCON:102:1,2017-04-01T19:45:00Z,29.1870,-90.6093,2.63,22.1,1111122 
LUMCON,ioos:station:LUMCON:102:1,2017-04-01T20:00:00Z,29.1870,-90.6093,2.63,22.0,1111122 
LUMCON,ioos:station:LUMCON:102:1,2017-04-01T20:15:00Z,29.1870,-90.6093,2.62,21.65,1111122 
LUMCON,ioos:station:LUMCON:102:1,2017-04-01T20:30:00Z,29.1870,-90.6093,2.62,21.66,1111122 
LUMCON,ioos:station:LUMCON:102:1,2017-04-01T20:45:00Z,29.1870,-90.6093,2.62,21.64,1111122 
LUMCON,ioos:station:LUMCON:102:1,2017-04-01T21:00:00Z,29.1870,-90.6093,2.6,21.58,1111122 
LUMCON,ioos:station:LUMCON:102:1,2017-04-01T21:15:00Z,29.1870,-90.6093,2.59,21.92,1111122 
LUMCON,ioos:station:LUMCON:102:1,2017-04-01T21:30:00Z,29.1870,-90.6093,2.6,21.76,1111122 
LUMCON,ioos:station:LUMCON:102:1,2017-04-01T21:45:00Z,29.1870,-90.6093,2.58,21.5,1111122 
LUMCON,ioos:station:LUMCON:102:1,2017-04-01T22:00:00Z,29.1870,-90.6093,2.59,21.24,1111122 
LUMCON,ioos:station:LUMCON:102:1,2017-04-01T22:15:00Z,29.1870,-90.6093,2.59,20.99,1111122 
LUMCON,ioos:station:LUMCON:102:1,2017-04-01T22:30:00Z,29.1870,-90.6093,2.57,20.81,1111122 
LUMCON,ioos:station:LUMCON:102:1,2017-04-01T22:45:00Z,29.1870,-90.6093,2.57,20.75,1111122 
LUMCON,ioos:station:LUMCON:102:1,2017-04-01T23:00:00Z,29.1870,-90.6093,2.57,20.54,1111122 
LUMCON,ioos:station:LUMCON:102:1,2017-04-01T23:15:00Z,29.1870,-90.6093,2.55,20.95,1111122 
LUMCON,ioos:station:LUMCON:102:1,2017-04-01T23:30:00Z,29.1870,-90.6093,2.54,20.98,1111122 
LUMCON,ioos:station:LUMCON:102:1,2017-04-01T23:45:00Z,29.1870,-90.6093,2.53,21.14,1111122 
LUMCON,ioos:station:LUMCON:102:1,2017-04-02T00:00:00Z,29.1870,-90.6093,2.53,21.23,1111122 
LUMCON,ioos:station:LUMCON:102:1,2017-04-02T00:15:00Z,29.1870,-90.6093,2.52,21.04,1111122 
LUMCON,ioos:station:LUMCON:102:1,2017-04-02T00:30:00Z,29.1870,-90.6093,2.5,21.09,1111122 
LUMCON,ioos:station:LUMCON:102:1,2017-04-02T00:45:00Z,29.1870,-90.6093,2.48,20.84,1111122 
LUMCON,ioos:station:LUMCON:102:1,2017-04-02T01:00:00Z,29.1870,-90.6093,2.46,20.38,1111122 
LUMCON,ioos:station:LUMCON:102:1,2017-04-02T01:15:00Z,29.1870,-90.6093,2.44,20.21,1111122 
LUMCON,ioos:station:LUMCON:102:1,2017-04-02T01:30:00Z,29.1870,-90.6093,2.43,20.42,1111122 
LUMCON,ioos:station:LUMCON:102:1,2017-04-02T01:45:00Z,29.1870,-90.6093,2.42,20.15,1111122 
LUMCON,ioos:station:LUMCON:102:1,2017-04-02T02:00:00Z,29.1870,-90.6093,2.41,19.93,1111122 
LUMCON,ioos:station:LUMCON:102:1,2017-04-02T02:15:00Z,29.1870,-90.6093,2.39,20.07,1111122 
LUMCON,ioos:station:LUMCON:102:1,2017-04-02T02:30:00Z,29.1870,-90.6093,2.38,20.01,1111122 
LUMCON,ioos:station:LUMCON:102:1,2017-04-02T02:45:00Z,29.1870,-90.6093,2.37,20.02,1111122 
LUMCON,ioos:station:LUMCON:102:1,2017-04-02T03:00:00Z,29.1870,-90.6093,2.37,19.87,1111122 
LUMCON,ioos:station:LUMCON:102:1,2017-04-02T03:15:00Z,29.1870,-90.6093,2.34,19.9,1111122 
LUMCON,ioos:station:LUMCON:102:1,2017-04-02T03:30:00Z,29.1870,-90.6093,2.34,20.03,1111122 
LUMCON,ioos:station:LUMCON:102:1,2017-04-02T03:45:00Z,29.1870,-90.6093,2.3,20.06,1111122 
LUMCON,ioos:station:LUMCON:102:1,2017-04-02T04:00:00Z,29.1870,-90.6093,2.31,19.99,1111122 
LUMCON,ioos:station:LUMCON:102:1,2017-04-02T04:15:00Z,29.1870,-90.6093,2.3,19.84,1111122 
LUMCON,ioos:station:LUMCON:102:1,2017-04-02T04:30:00Z,29.1870,-90.6093,2.3,19.75,1111122 
LUMCON,ioos:station:LUMCON:102:1,2017-04-02T04:45:00Z,29.1870,-90.6093,2.29,19.55,1111122 
LUMCON,ioos:station:LUMCON:102:1,2017-04-02T05:00:00Z,29.1870,-90.6093,2.3,19.69,1111122 
LUMCON,ioos:station:LUMCON:102:1,2017-04-02T05:15:00Z,29.1870,-90.6093,2.29,19.71,1111122 
LUMCON,ioos:station:LUMCON:102:1,2017-04-02T05:30:00Z,29.1870,-90.6093,2.29,19.65,1111122 
LUMCON,ioos:station:LUMCON:102:1,2017-04-02T05:45:00Z,29.1870,-90.6093,2.3,19.62,1111122 
LUMCON,ioos:station:LUMCON:102:1,2017-04-02T06:00:00Z,29.1870,-90.6093,2.29,19.61,1111122 
LUMCON,ioos:station:LUMCON:102:1,2017-04-02T06:15:00Z,29.1870,-90.6093,2.28,19.6,1111122 
LUMCON,ioos:station:LUMCON:102:1,2017-04-02T06:30:00Z,29.1870,-90.6093,2.29,19.48,1111122 
LUMCON,ioos:station:LUMCON:102:1,2017-04-02T06:45:00Z,29.1870,-90.6093,2.28,19.56,1111122 
LUMCON,ioos:station:LUMCON:102:1,2017-04-02T07:00:00Z,29.1870,-90.6093,2.29,19.7,1111122 
LUMCON,ioos:station:LUMCON:102:1,2017-04-02T07:15:00Z,29.1870,-90.6093,2.3,19.76,1111122 
LUMCON,ioos:station:LUMCON:102:1,2017-04-02T07:30:00Z,29.1870,-90.6093,2.3,19.84,1111122 
LUMCON,ioos:station:LUMCON:102:1,2017-04-02T07:45:00Z,29.1870,-90.6093,2.29,19.84,1111122 
LUMCON,ioos:station:LUMCON:102:1,2017-04-02T08:00:00Z,29.1870,-90.6093,2.3,19.82,1111122 
LUMCON,ioos:station:LUMCON:102:1,2017-04-02T08:15:00Z,29.1870,-90.6093,2.3,19.69,1111122 
LUMCON,ioos:station:LUMCON:102:1,2017-04-02T08:30:00Z,29.1870,-90.6093,2.32,19.53,1111122 
LUMCON,ioos:station:LUMCON:102:1,2017-04-02T08:45:00Z,29.1870,-90.6093,2.32,19.73,1111122 
LUMCON,ioos:station:LUMCON:102:1,2017-04-02T09:00:00Z,29.1870,-90.6093,2.34,19.86,1111122 
LUMCON,ioos:station:LUMCON:102:1,2017-04-02T09:15:00Z,29.1870,-90.6093,2.35,19.92,1111122 
LUMCON,ioos:station:LUMCON:102:1,2017-04-02T09:30:00Z,29.1870,-90.6093,2.39,19.93,1111122 
LUMCON,ioos:station:LUMCON:102:1,2017-04-02T09:45:00Z,29.1870,-90.6093,2.4,20.06,1111122 
LUMCON,ioos:station:LUMCON:102:1,2017-04-02T10:00:00Z,29.1870,-90.6093,2.41,20.15,1111122 
LUMCON,ioos:station:LUMCON:102:1,2017-04-02T10:15:00Z,29.1870,-90.6093,2.41,20.03,1111122 
LUMCON,ioos:station:LUMCON:102:1,2017-04-02T10:30:00Z,29.1870,-90.6093,2.4,19.99,1111122 
LUMCON,ioos:station:LUMCON:102:1,2017-04-02T10:45:00Z,29.1870,-90.6093,2.41,19.93,1111122 
LUMCON,ioos:station:LUMCON:102:1,2017-04-02T11:00:00Z,29.1870,-90.6093,2.41,19.73,1111122 
LUMCON,ioos:station:LUMCON:102:1,2017-04-02T11:15:00Z,29.1870,-90.6093,2.43,19.63,1111122 
LUMCON,ioos:station:LUMCON:102:1,2017-04-02T11:30:00Z,29.1870,-90.6093,2.47,19.6,1111122 
LUMCON,ioos:station:LUMCON:102:1,2017-04-02T11:45:00Z,29.1870,-90.6093,2.5,19.66,1111122 
LUMCON,ioos:station:LUMCON:102:1,2017-04-02T12:00:00Z,29.1870,-90.6093,2.51,20.02,1111122 
LUMCON,ioos:station:LUMCON:102:1,2017-04-02T12:15:00Z,29.1870,-90.6093,2.52,20.26,1111122 
LUMCON,ioos:station:LUMCON:102:1,2017-04-02T12:30:00Z,29.1870,-90.6093,2.54,20.77,1111122 
LUMCON,ioos:station:LUMCON:102:1,2017-04-02T12:45:00Z,29.1870,-90.6093,2.54,20.82,1111122 
LUMCON,ioos:station:LUMCON:102:1,2017-04-02T13:00:00Z,29.1870,-90.6093,2.56,21.02,1111122 
LUMCON,ioos:station:LUMCON:102:1,2017-04-02T13:15:00Z,29.1870,-90.6093,2.57,21.25,1111122 
LUMCON,ioos:station:LUMCON:102:1,2017-04-02T13:30:00Z,29.1870,-90.6093,2.59,21.28,1111122 
LUMCON,ioos:station:LUMCON:102:1,2017-04-02T13:45:00Z,29.1870,-90.6093,2.6,21.72,1111122 
LUMCON,ioos:station:LUMCON:102:1,2017-04-02T14:00:00Z,29.1870,-90.6093,2.61,21.71,1111122 
LUMCON,ioos:station:LUMCON:102:1,2017-04-02T14:15:00Z,29.1870,-90.6093,2.62,21.93,1111122 
LUMCON,ioos:station:LUMCON:102:1,2017-04-02T14:30:00Z,29.1870,-90.6093,2.64,22.01,1111122 
LUMCON,ioos:station:LUMCON:102:1,2017-04-02T14:45:00Z,29.1870,-90.6093,2.64,22.17,1111122 
LUMCON,ioos:station:LUMCON:102:1,2017-04-02T15:00:00Z,29.1870,-90.6093,2.65,22.28,1111122 
LUMCON,ioos:station:LUMCON:102:1,2017-04-02T15:15:00Z,29.1870,-90.6093,2.66,22.24,1111122 
LUMCON,ioos:station:LUMCON:102:1,2017-04-02T15:30:00Z,29.1870,-90.6093,2.67,22.14,1111122 
LUMCON,ioos:station:LUMCON:102:1,2017-04-02T15:45:00Z,29.1870,-90.6093,2.68,22.25,1111122 
LUMCON,ioos:station:LUMCON:102:1,2017-04-02T16:00:00Z,29.1870,-90.6093,2.72,22.46,1111122 
LUMCON,ioos:station:LUMCON:102:1,2017-04-02T16:15:00Z,29.1870,-90.6093,2.76,22.51,1111122 
LUMCON,ioos:station:LUMCON:102:1,2017-04-02T16:30:00Z,29.1870,-90.6093,2.75,23.09,1111122 
LUMCON,ioos:station:LUMCON:102:1,2017-04-02T16:45:00Z,29.1870,-90.6093,2.76,23.09,1111122 
LUMCON,ioos:station:LUMCON:102:1,2017-04-02T17:00:00Z,29.1870,-90.6093,2.75,23.05,1111122 
LUMCON,ioos:station:LUMCON:102:1,2017-04-02T17:15:00Z,29.1870,-90.6093,2.75,23.11,1111122 
LUMCON,ioos:station:LUMCON:102:1,2017-04-02T17:30:00Z,29.1870,-90.6093,2.77,23.0,1111122 
LUMCON,ioos:station:LUMCON:102:1,2017-04-02T17:45:00Z,29.1870,-90.6093,2.77,22.99,1111122 
LUMCON,ioos:station:LUMCON:102:1,2017-04-02T18:00:00Z,29.1870,-90.6093,2.77,22.97,1111122 
LUMCON,ioos:station:LUMCON:102:1,2017-04-02T18:15:00Z,29.1870,-90.6093,2.77,23.03,1111122 
LUMCON,ioos:station:LUMCON:102:1,2017-04-02T18:30:00Z,29.1870,-90.6093,2.77,23.16,1111122 
LUMCON,ioos:station:LUMCON:102:1,2017-04-02T18:45:00Z,29.1870,-90.6093,2.77,23.24,1111122 
LUMCON,ioos:station:LUMCON:102:1,2017-04-02T19:00:00Z,29.1870,-90.6093,2.78,23.2,1111122 
LUMCON,ioos:station:LUMCON:102:1,2017-04-02T19:15:00Z,29.1870,-90.6093,2.75,23.15,1111122 
LUMCON,ioos:station:LUMCON:102:1,2017-04-02T19:30:00Z,29.1870,-90.6093,2.75,22.88,1111122 
LUMCON,ioos:station:LUMCON:102:1,2017-04-02T19:45:00Z,29.1870,-90.6093,2.74,22.94,1111122 
LUMCON,ioos:station:LUMCON:102:1,2017-04-02T20:00:00Z,29.1870,-90.6093,2.73,22.85,1111122 
LUMCON,ioos:station:LUMCON:102:1,2017-04-02T20:15:00Z,29.1870,-90.6093,2.73,22.82,1111122 
LUMCON,ioos:station:LUMCON:102:1,2017-04-02T20:30:00Z,29.1870,-90.6093,2.72,22.95,1111122 
LUMCON,ioos:station:LUMCON:102:1,2017-04-02T20:45:00Z,29.1870,-90.6093,2.73,22.79,1111122 
LUMCON,ioos:station:LUMCON:102:1,2017-04-02T21:00:00Z,29.1870,-90.6093,2.74,22.98,1111122 
LUMCON,ioos:station:LUMCON:102:1,2017-04-02T21:15:00Z,29.1870,-90.6093,2.74,22.72,1111122 
LUMCON,ioos:station:LUMCON:102:1,2017-04-02T21:30:00Z,29.1870,-90.6093,2.76,22.65,1111122 
LUMCON,ioos:station:LUMCON:102:1,2017-04-02T21:45:00Z,29.1870,-90.6093,2.75,22.81,1111122 
LUMCON,ioos:station:LUMCON:102:1,2017-04-02T22:00:00Z,29.1870,-90.6093,2.76,22.77,1111122 
LUMCON,ioos:station:LUMCON:102:1,2017-04-02T22:15:00Z,29.1870,-90.6093,2.74,22.9,1111122 
LUMCON,ioos:station:LUMCON:102:1,2017-04-02T22:30:00Z,29.1870,-90.6093,2.76,22.91,1111122 
LUMCON,ioos:station:LUMCON:102:1,2017-04-02T22:45:00Z,29.1870,-90.6093,2.77,23.05,1111122 
LUMCON,ioos:station:LUMCON:102:1,2017-04-02T23:00:00Z,29.1870,-90.6093,2.77,23.13,1111122 
LUMCON,ioos:station:LUMCON:102:1,2017-04-02T23:15:00Z,29.1870,-90.6093,2.75,22.93,1111122 
LUMCON,ioos:station:LUMCON:102:1,2017-04-02T23:30:00Z,29.1870,-90.6093,2.75,23.07,1111122 
LUMCON,ioos:station:LUMCON:102:1,2017-04-02T23:45:00Z,29.1870,-90.6093,2.75,23.18,1111122 
LUMCON,ioos:station:LUMCON:102:1,2017-04-03T00:00:00Z,29.1870,-90.6093,2.74,22.96,1111122 
LUMCON,ioos:station:LUMCON:102:1,2017-04-03T00:15:00Z,29.1870,-90.6093,2.71,22.89,1111122 
LUMCON,ioos:station:LUMCON:102:1,2017-04-03T00:30:00Z,29.1870,-90.6093,2.69,23.1,1111122 
LUMCON,ioos:station:LUMCON:102:1,2017-04-03T00:45:00Z,29.1870,-90.6093,2.68,23.14,1111122 
LUMCON,ioos:station:LUMCON:102:1,2017-04-03T01:00:00Z,29.1870,-90.6093,2.67,23.19,1111122 
LUMCON,ioos:station:LUMCON:102:1,2017-04-03T01:15:00Z,29.1870,-90.6093,2.67,23.14,1111122 
LUMCON,ioos:station:LUMCON:102:1,2017-04-03T01:30:00Z,29.1870,-90.6093,2.65,23.1,1111122 
LUMCON,ioos:station:LUMCON:102:1,2017-04-03T01:45:00Z,29.1870,-90.6093,2.61,23.03,1111122 
LUMCON,ioos:station:LUMCON:102:1,2017-04-03T02:00:00Z,29.1870,-90.6093,2.6,23.16,1111122 
LUMCON,ioos:station:LUMCON:102:1,2017-04-03T02:15:00Z,29.1870,-90.6093,2.6,23.08,1111122 
LUMCON,ioos:station:LUMCON:102:1,2017-04-03T02:30:00Z,29.1870,-90.6093,2.57,23.21,1111122 
LUMCON,ioos:station:LUMCON:102:1,2017-04-03T02:45:00Z,29.1870,-90.6093,2.54,23.07,1111122 
LUMCON,ioos:station:LUMCON:102:1,2017-04-03T03:00:00Z,29.1870,-90.6093,2.54,22.95,1111122 
LUMCON,ioos:station:LUMCON:102:1,2017-04-03T03:15:00Z,29.1870,-90.6093,2.54,22.75,1111122 
LUMCON,ioos:station:LUMCON:102:1,2017-04-03T03:30:00Z,29.1870,-90.6093,2.54,22.74,1111122 
LUMCON,ioos:station:LUMCON:102:1,2017-04-03T03:45:00Z,29.1870,-90.6093,2.54,22.78,1111122 
LUMCON,ioos:station:LUMCON:102:1,2017-04-03T04:00:00Z,29.1870,-90.6093,2.52,22.82,1111122 
LUMCON,ioos:station:LUMCON:102:1,2017-04-03T04:15:00Z,29.1870,-90.6093,2.52,22.87,1111122 
LUMCON,ioos:station:LUMCON:102:1,2017-04-03T04:30:00Z,29.1870,-90.6093,2.51,22.83,1111122 
LUMCON,ioos:station:LUMCON:102:1,2017-04-03T04:45:00Z,29.1870,-90.6093,2.51,22.74,1111122 
LUMCON,ioos:station:LUMCON:102:1,2017-04-03T05:00:00Z,29.1870,-90.6093,2.5,22.77,1111122 
LUMCON,ioos:station:LUMCON:102:1,2017-04-03T05:15:00Z,29.1870,-90.6093,2.48,22.58,1111122 
LUMCON,ioos:station:LUMCON:102:1,2017-04-03T05:30:00Z,29.1870,-90.6093,2.5,22.47,1111122 
LUMCON,ioos:station:LUMCON:102:1,2017-04-03T05:45:00Z,29.1870,-90.6093,2.49,22.4,1111122 
LUMCON,ioos:station:LUMCON:102:1,2017-04-03T06:00:00Z,29.1870,-90.6093,2.48,22.15,1111122 
LUMCON,ioos:station:LUMCON:102:1,2017-04-03T06:15:00Z,29.1870,-90.6093,2.48,21.98,1111122 
LUMCON,ioos:station:LUMCON:102:1,2017-04-03T06:30:00Z,29.1870,-90.6093,2.47,21.85,1111122 
LUMCON,ioos:station:LUMCON:102:1,2017-04-03T06:45:00Z,29.1870,-90.6093,2.47,21.81,1111122 
LUMCON,ioos:station:LUMCON:102:1,2017-04-03T07:00:00Z,29.1870,-90.6093,2.46,21.72,1111122 
LUMCON,ioos:station:LUMCON:102:1,2017-04-03T07:15:00Z,29.1870,-90.6093,2.46,21.54,1111122 
LUMCON,ioos:station:LUMCON:102:1,2017-04-03T07:30:00Z,29.1870,-90.6093,2.46,21.38,1111122 
LUMCON,ioos:station:LUMCON:102:1,2017-04-03T07:45:00Z,29.1870,-90.6093,2.44,21.06,1111122 
LUMCON,ioos:station:LUMCON:102:1,2017-04-03T08:00:00Z,29.1870,-90.6093,2.45,20.73,1111122 
LUMCON,ioos:station:LUMCON:102:1,2017-04-03T08:15:00Z,29.1870,-90.6093,2.45,20.9,1111122 
LUMCON,ioos:station:LUMCON:102:1,2017-04-03T08:30:00Z,29.1870,-90.6093,2.44,20.75,1111122 
LUMCON,ioos:station:LUMCON:102:1,2017-04-03T08:45:00Z,29.1870,-90.6093,2.46,20.97,1111122 
LUMCON,ioos:station:LUMCON:102:1,2017-04-03T09:00:00Z,29.1870,-90.6093,2.46,20.96,1111122 
LUMCON,ioos:station:LUMCON:102:1,2017-04-03T09:15:00Z,29.1870,-90.6093,2.45,20.4,1111122 
LUMCON,ioos:station:LUMCON:102:1,2017-04-03T09:30:00Z,29.1870,-90.6093,2.45,20.66,1111122 
LUMCON,ioos:station:LUMCON:102:1,2017-04-03T09:45:00Z,29.1870,-90.6093,2.45,20.92,1111122 
LUMCON,ioos:station:LUMCON:102:1,2017-04-03T10:00:00Z,29.1870,-90.6093,2.45,21.34,1111122 
LUMCON,ioos:station:LUMCON:102:1,2017-04-03T10:15:00Z,29.1870,-90.6093,2.46,20.91,1111122 
LUMCON,ioos:station:LUMCON:102:1,2017-04-03T10:30:00Z,29.1870,-90.6093,2.45,20.91,1111122 
LUMCON,ioos:station:LUMCON:102:1,2017-04-03T10:45:00Z,29.1870,-90.6093,2.46,21.42,1111122 
LUMCON,ioos:station:LUMCON:102:1,2017-04-03T11:00:00Z,29.1870,-90.6093,2.48,21.58,1111122 
LUMCON,ioos:station:LUMCON:102:1,2017-04-03T11:15:00Z,29.1870,-90.6093,2.5,21.55,1111122 
LUMCON,ioos:station:LUMCON:102:1,2017-04-03T11:30:00Z,29.1870,-90.6093,2.53,21.77,1111122 
LUMCON,ioos:station:LUMCON:102:1,2017-04-03T11:45:00Z,29.1870,-90.6093,2.52,21.93,1111122 
LUMCON,ioos:station:LUMCON:102:1,2017-04-03T12:00:00Z,29.1870,-90.6093,2.54,22.1,1111122 
LUMCON,ioos:station:LUMCON:102:1,2017-04-03T12:15:00Z,29.1870,-90.6093,2.55,22.02,1111122 
LUMCON,ioos:station:LUMCON:102:1,2017-04-03T12:30:00Z,29.1870,-90.6093,2.55,21.9,1111122 
LUMCON,ioos:station:LUMCON:102:1,2017-04-03T12:45:00Z,29.1870,-90.6093,2.54,21.85,1111122 
LUMCON,ioos:station:LUMCON:102:1,2017-04-03T13:00:00Z,29.1870,-90.6093,2.54,21.79,1111122 
LUMCON,ioos:station:LUMCON:102:1,2017-04-03T13:15:00Z,29.1870,-90.6093,2.57,21.9,1111122 
LUMCON,ioos:station:LUMCON:102:1,2017-04-03T13:30:00Z,29.1870,-90.6093,2.55,21.9,1111122 
LUMCON,ioos:station:LUMCON:102:1,2017-04-03T13:45:00Z,29.1870,-90.6093,2.59,22.08,1111122 
LUMCON,ioos:station:LUMCON:102:1,2017-04-03T14:00:00Z,29.1870,-90.6093,2.59,21.88,1111122 
LUMCON,ioos:station:LUMCON:102:1,2017-04-03T14:15:00Z,29.1870,-90.6093,2.58,21.59,1111122 
LUMCON,ioos:station:LUMCON:102:1,2017-04-03T14:30:00Z,29.1870,-90.6093,2.59,21.57,1111122 
LUMCON,ioos:station:LUMCON:102:1,2017-04-03T14:45:00Z,29.1870,-90.6093,2.62,21.71,1111122 
LUMCON,ioos:station:LUMCON:102:1,2017-04-03T15:00:00Z,29.1870,-90.6093,2.6,21.56,1111122 
LUMCON,ioos:station:LUMCON:102:1,2017-04-03T15:15:00Z,29.1870,-90.6093,2.59,22.01,1111122 
LUMCON,ioos:station:LUMCON:102:1,2017-04-03T15:30:00Z,29.1870,-90.6093,2.58,22.0,1111122 
LUMCON,ioos:station:LUMCON:102:1,2017-04-03T15:45:00Z,29.1870,-90.6093,2.6,21.92,1111122 
LUMCON,ioos:station:LUMCON:102:1,2017-04-03T16:00:00Z,29.1870,-90.6093,2.61,21.98,1111122 
LUMCON,ioos:station:LUMCON:102:1,2017-04-03T16:15:00Z,29.1870,-90.6093,2.58,21.94,1111122 
LUMCON,ioos:station:LUMCON:102:1,2017-04-03T16:30:00Z,29.1870,-90.6093,2.64,21.71,1111122 
LUMCON,ioos:station:LUMCON:102:1,2017-04-03T16:45:00Z,29.1870,-90.6093,2.59,21.6,1111122 
LUMCON,ioos:station:LUMCON:102:1,2017-04-03T17:00:00Z,29.1870,-90.6093,2.58,21.67,1111122 
LUMCON,ioos:station:LUMCON:102:1,2017-04-03T17:15:00Z,29.1870,-90.6093,2.55,21.65,1111122 
LUMCON,ioos:station:LUMCON:102:1,2017-04-03T17:30:00Z,29.1870,-90.6093,2.6,21.77,1111122 